Location: Forst
(46.9333°N, 15.4333°E)
Time: 07:05:31
(UTC+00:00)

Lacrosse 5 rocket - Pass Details

Date: 21 April 2021
Orbit: 460 x 634 km, 57.0° (Epoch: 12 May)

Event Time Altitude Azimuth Distance (km) Brightness Sun altitude
Rises 22:27:44 0° 307° (NW) 2,806 5.5 -30.5°
Reaches altitude 10° 22:29:57 10° 306° (NW) 1,929 4.6 -30.6°
Enters shadow 22:31:34 22° 305° (NW) 1,317 3.6 -30.6°
